DLH9EJ LROP-EDDF

Flight info

Callsign DLH9EJ
Flight time 2h 6m
Altitude 36000
Route SOKRU DCT OXDOC DCT DEGET DCT ARSIN DCT SUBEN DCT AKINI T161 DEBHI DEBHI1B
Aircraft A320/M-SDE2E3FGIJ1LORWXYZ/HB1

Departure

Time 2026-04-15 14:10
Airport Bucharest Henri Coandă International Airport (LROP)

Arrival

Time 2026-04-15 16:16
Airport Frankfurt Main Airport (EDDF)
Time Latitude Longitude Altitude Speed Heading
2026-04-15 13:36 44.57015 26.08080 322 ft 0 kts 354°
2026-04-15 14:02 44.56995 26.08083 319 ft 4 kts 354°
2026-04-15 14:02 44.56968 26.08086 322 ft 4 kts 354°
2026-04-15 14:02 44.56944 26.08090 321 ft 4 kts 20°
2026-04-15 14:03 44.56932 26.08071 323 ft 2 kts 84°
2026-04-15 14:03 44.56930 26.08045 323 ft 0 kts 84°
2026-04-15 14:05 44.56931 26.08058 323 ft 4 kts 84°
2026-04-15 14:05 44.56936 26.08127 323 ft 10 kts 84°
2026-04-15 14:05 44.56945 26.08254 323 ft 16 kts 84°
2026-04-15 14:06 44.56986 26.08389 323 ft 15 kts 15°
2026-04-15 14:06 44.57088 26.08377 322 ft 14 kts 355°
2026-04-15 14:06 44.57177 26.08365 323 ft 12 kts 354°
2026-04-15 14:06 44.57227 26.08410 323 ft 9 kts 79°
2026-04-15 14:07 44.57261 26.08499 323 ft 13 kts 14°
2026-04-15 14:07 44.57362 26.08486 321 ft 15 kts 354°
2026-04-15 14:07 44.57458 26.08472 323 ft 13 kts 354°
2026-04-15 14:07 44.57542 26.08460 323 ft 11 kts 354°
2026-04-15 14:08 44.57614 26.08450 323 ft 10 kts 354°
2026-04-15 14:08 44.57661 26.08473 323 ft 6 kts 54°
2026-04-15 14:08 44.57668 26.08508 324 ft 0 kts 84°
2026-04-15 14:09 44.57669 26.08511 324 ft 3 kts 84°
2026-04-15 14:09 44.57693 26.08830 322 ft 70 kts 84°
2026-04-15 14:09 44.57766 26.09806 323 ft 129 kts 84°
2026-04-15 14:10 44.57878 26.11279 355 ft 171 kts 84°
2026-04-15 14:10 44.58008 26.12963 907 ft 177 kts 85°
2026-04-15 14:10 44.58131 26.14734 1512 ft 189 kts 85°
2026-04-15 14:10 44.58269 26.16645 2065 ft 204 kts 84°
2026-04-15 14:11 44.58431 26.18748 2353 ft 232 kts 84°
2026-04-15 14:11 44.58976 26.20936 2905 ft 249 kts 52°
2026-04-15 14:11 44.60434 26.22366 3499 ft 270 kts 17°
2026-04-15 14:11 44.62336 26.22394 4194 ft 284 kts 345°
2026-04-15 14:12 44.63962 26.20925 5286 ft 278 kts 311°
2026-04-15 14:12 44.65217 26.18875 6362 ft 276 kts 320°
2026-04-15 14:12 44.66891 26.17623 7235 ft 275 kts 345°
2026-04-15 14:12 44.68789 26.17130 8020 ft 279 kts 355°
2026-04-15 14:13 44.70744 26.16957 8799 ft 284 kts 358°
2026-04-15 14:13 44.72729 26.16865 9594 ft 287 kts 358°
2026-04-15 14:13 44.74723 26.16577 10354 ft 290 kts 345°
2026-04-15 14:13 44.76586 26.15485 11089 ft 292 kts 326°
2026-04-15 14:14 44.78125 26.13554 11557 ft 305 kts 307°
2026-04-15 14:14 44.79276 26.11014 11939 ft 320 kts 300°
2026-04-15 14:14 44.80450 26.08265 12375 ft 333 kts 300°
2026-04-15 14:14 44.81662 26.05456 13049 ft 337 kts 301°
2026-04-15 14:15 44.82897 26.02627 13779 ft 340 kts 301°
2026-04-15 14:15 44.84148 25.99780 14431 ft 344 kts 301°
2026-04-15 14:15 44.85414 25.96903 15062 ft 346 kts 301°
2026-04-15 14:15 44.86556 25.93905 15679 ft 349 kts 291°
2026-04-15 14:16 44.87315 25.90651 16276 ft 351 kts 286°
2026-04-15 14:16 44.87782 25.88414 16692 ft 353 kts 286°
2026-04-15 14:16 44.88480 25.85080 17297 ft 356 kts 286°
2026-04-15 14:16 44.89186 25.81716 17903 ft 359 kts 286°
2026-04-15 14:17 44.89898 25.78331 18497 ft 362 kts 286°
2026-04-15 14:17 44.90615 25.74917 19023 ft 364 kts 286°
2026-04-15 14:17 44.91336 25.71480 19564 ft 366 kts 286°
2026-04-15 14:17 44.92056 25.68026 20104 ft 368 kts 286°
2026-04-15 14:18 44.92777 25.64550 20648 ft 370 kts 286°
2026-04-15 14:18 44.93502 25.61051 21176 ft 373 kts 286°
2026-04-15 14:18 44.94231 25.57532 21708 ft 375 kts 286°
2026-04-15 14:18 44.94965 25.53989 22237 ft 377 kts 286°
2026-04-15 14:19 44.95702 25.50425 22760 ft 380 kts 286°
2026-04-15 14:19 44.96444 25.46836 23286 ft 382 kts 286°
2026-04-15 14:19 44.97187 25.43227 23778 ft 384 kts 286°
2026-04-15 14:19 44.97922 25.39640 24181 ft 386 kts 285°
2026-04-15 14:20 44.98669 25.35988 24586 ft 388 kts 285°
2026-04-15 14:20 44.99429 25.32320 24993 ft 390 kts 287°
2026-04-15 14:20 45.00278 25.28681 25396 ft 391 kts 289°
2026-04-15 14:20 45.01211 25.25060 25773 ft 393 kts 290°
2026-04-15 14:21 45.02189 25.21445 26153 ft 394 kts 290°
2026-04-15 14:21 45.03291 25.17891 26522 ft 397 kts 297°
2026-04-15 14:21 45.04689 25.14517 26893 ft 398 kts 299°
2026-04-15 14:21 45.06080 25.11126 27242 ft 400 kts 298°
2026-04-15 14:22 45.07455 25.07692 27595 ft 401 kts 298°
2026-04-15 14:22 45.08820 25.04239 27944 ft 403 kts 298°
2026-04-15 14:22 45.10189 25.00770 28292 ft 405 kts 297°
2026-04-15 14:22 45.11566 24.97287 28618 ft 406 kts 297°
2026-04-15 14:23 45.12951 24.93787 28944 ft 408 kts 297°
2026-04-15 14:23 45.14340 24.90276 29258 ft 409 kts 297°
2026-04-15 14:23 45.15736 24.86752 29549 ft 411 kts 297°
2026-04-15 14:23 45.17136 24.83211 29864 ft 413 kts 297°
2026-04-15 14:24 45.18541 24.79656 30142 ft 414 kts 297°
2026-04-15 14:24 45.19948 24.76089 30399 ft 416 kts 297°
2026-04-15 14:24 45.21362 24.72506 30629 ft 417 kts 297°
2026-04-15 14:24 45.22781 24.68908 30855 ft 419 kts 297°
2026-04-15 14:25 45.24201 24.65295 31066 ft 420 kts 297°
2026-04-15 14:25 45.25628 24.61661 31256 ft 422 kts 297°
2026-04-15 14:25 45.27059 24.58013 31484 ft 423 kts 297°
2026-04-15 14:25 45.28471 24.54411 31754 ft 423 kts 297°
2026-04-15 14:26 45.29897 24.50769 32052 ft 422 kts 297°
2026-04-15 14:26 45.31340 24.47079 32334 ft 421 kts 297°
2026-04-15 14:26 45.32743 24.43488 32610 ft 421 kts 297°
2026-04-15 14:26 45.34162 24.39854 32884 ft 421 kts 297°
2026-04-15 14:27 45.35579 24.36216 33116 ft 420 kts 297°
2026-04-15 14:27 45.36992 24.32577 33373 ft 420 kts 297°
2026-04-15 14:27 45.38400 24.28945 33642 ft 420 kts 297°
2026-04-15 14:27 45.39806 24.25308 33907 ft 419 kts 297°
2026-04-15 14:28 45.41211 24.21671 34146 ft 419 kts 297°
2026-04-15 14:28 45.42614 24.18036 34339 ft 419 kts 297°
2026-04-15 14:28 45.44015 24.14404 34562 ft 419 kts 297°
2026-04-15 14:28 45.45419 24.10769 34777 ft 419 kts 296°
2026-04-15 14:29 45.46820 24.07138 34962 ft 418 kts 297°
2026-04-15 14:29 45.48220 24.03506 35141 ft 419 kts 297°
2026-04-15 14:29 45.49622 23.99867 35325 ft 418 kts 297°
2026-04-15 14:29 45.51019 23.96233 35523 ft 418 kts 297°
2026-04-15 14:30 45.52414 23.92593 35693 ft 418 kts 297°
2026-04-15 14:30 45.53805 23.88952 35848 ft 418 kts 297°
2026-04-15 14:30 45.55195 23.85309 36030 ft 418 kts 297°
2026-04-15 14:31 45.57963 23.78058 36130 ft 413 kts 297°
2026-04-15 14:31 45.60705 23.70856 36136 ft 413 kts 297°
2026-04-15 14:32 45.63434 23.63644 36135 ft 413 kts 296°
2026-04-15 14:32 45.66146 23.56475 36137 ft 413 kts 297°
2026-04-15 14:33 45.68874 23.49251 36136 ft 413 kts 296°
2026-04-15 14:33 45.71600 23.42014 36142 ft 413 kts 296°
2026-04-15 14:34 45.74312 23.34781 36136 ft 413 kts 296°
2026-04-15 14:34 45.77022 23.27538 36135 ft 413 kts 296°
2026-04-15 14:35 45.79730 23.20290 36132 ft 412 kts 296°
2026-04-15 14:35 45.82430 23.13036 36126 ft 412 kts 296°
2026-04-15 14:36 45.85122 23.05769 36129 ft 413 kts 296°
2026-04-15 14:36 45.87812 22.98499 36126 ft 413 kts 296°
2026-04-15 14:37 45.90504 22.91219 36127 ft 413 kts 296°
2026-04-15 14:37 45.93189 22.83935 36132 ft 413 kts 296°
2026-04-15 14:38 45.95864 22.76639 36133 ft 413 kts 296°
2026-04-15 14:38 45.98542 22.69341 36132 ft 413 kts 296°
2026-04-15 14:39 46.01213 22.62037 36131 ft 412 kts 296°
2026-04-15 14:39 46.03876 22.54735 36130 ft 412 kts 296°
2026-04-15 14:40 46.06532 22.47418 36131 ft 412 kts 296°
2026-04-15 14:40 46.09181 22.40102 36129 ft 412 kts 296°
2026-04-15 14:41 46.11825 22.32773 36131 ft 412 kts 296°
2026-04-15 14:41 46.14461 22.25450 36134 ft 411 kts 296°
2026-04-15 14:42 46.17100 22.18134 36133 ft 411 kts 296°
2026-04-15 14:42 46.19732 22.10817 36130 ft 411 kts 296°
2026-04-15 14:43 46.22353 22.03487 36138 ft 411 kts 296°
2026-04-15 14:43 46.24950 21.96191 36138 ft 411 kts 295°
2026-04-15 14:44 46.27576 21.88787 36140 ft 411 kts 295°
2026-04-15 14:44 46.30169 21.81486 36148 ft 411 kts 295°
2026-04-15 14:45 46.32773 21.74136 36144 ft 411 kts 295°
2026-04-15 14:45 46.35366 21.66770 36150 ft 410 kts 295°
2026-04-15 14:46 46.37952 21.59409 36151 ft 410 kts 295°
2026-04-15 14:46 46.40535 21.52046 36148 ft 410 kts 295°
2026-04-15 14:47 46.43111 21.44677 36147 ft 410 kts 295°
2026-04-15 14:47 46.45684 21.37306 36150 ft 410 kts 295°
2026-04-15 14:48 46.48249 21.29929 36148 ft 409 kts 295°
2026-04-15 14:48 46.50508 21.22376 36147 ft 408 kts 289°
2026-04-15 14:49 46.52524 21.14668 36149 ft 408 kts 289°
2026-04-15 14:49 46.54530 21.06957 36151 ft 408 kts 289°
2026-04-15 14:50 46.56527 20.99244 36157 ft 408 kts 289°
2026-04-15 14:50 46.58527 20.91530 36158 ft 408 kts 289°
2026-04-15 14:51 46.60524 20.83810 36162 ft 408 kts 289°
2026-04-15 14:51 46.62508 20.76084 36165 ft 408 kts 289°
2026-04-15 14:52 46.64495 20.68355 36166 ft 408 kts 289°
2026-04-15 14:52 46.66463 20.60684 36165 ft 407 kts 289°
2026-04-15 14:53 46.68429 20.52949 36160 ft 407 kts 289°
2026-04-15 14:53 46.70388 20.45210 36160 ft 407 kts 289°
2026-04-15 14:54 46.72354 20.37467 36168 ft 407 kts 289°
2026-04-15 14:54 46.74312 20.29728 36169 ft 407 kts 289°
2026-04-15 14:55 46.76256 20.21976 36164 ft 407 kts 289°
2026-04-15 14:55 46.78196 20.14218 36165 ft 407 kts 289°
2026-04-15 14:56 46.80132 20.06452 36163 ft 407 kts 289°
2026-04-15 14:56 46.82065 19.98681 36164 ft 408 kts 289°
2026-04-15 14:57 46.83997 19.90889 36170 ft 408 kts 289°
2026-04-15 14:57 46.85926 19.83100 36174 ft 408 kts 289°
2026-04-15 14:58 46.87853 19.75301 36173 ft 408 kts 289°
2026-04-15 14:58 46.89768 19.67483 36173 ft 409 kts 289°
2026-04-15 14:59 46.91684 19.59651 36176 ft 409 kts 289°
2026-04-15 14:59 46.93592 19.51806 36176 ft 410 kts 288°
2026-04-15 15:00 46.95495 19.43948 36183 ft 410 kts 288°
2026-04-15 15:00 46.97404 19.36084 36183 ft 410 kts 288°
2026-04-15 15:01 46.99307 19.28209 36178 ft 410 kts 288°
2026-04-15 15:01 47.01188 19.20371 36174 ft 411 kts 288°
2026-04-15 15:02 47.03072 19.12465 36172 ft 411 kts 288°
2026-04-15 15:02 47.04964 19.04548 36172 ft 412 kts 288°
2026-04-15 15:03 47.06850 18.96617 36171 ft 412 kts 288°
2026-04-15 15:03 47.08730 18.88676 36174 ft 413 kts 288°
2026-04-15 15:04 47.10610 18.80718 36186 ft 413 kts 288°
2026-04-15 15:04 47.12489 18.72740 36182 ft 413 kts 288°
2026-04-15 15:05 47.14361 18.64755 36190 ft 414 kts 288°
2026-04-15 15:05 47.16220 18.56760 36185 ft 414 kts 288°
2026-04-15 15:06 47.18689 18.46083 36184 ft 415 kts 288°
2026-04-15 15:06 47.20553 18.38048 36185 ft 416 kts 288°
2026-04-15 15:07 47.22419 18.29999 36188 ft 416 kts 288°
2026-04-15 15:07 47.24267 18.21943 36186 ft 416 kts 288°
2026-04-15 15:08 47.26108 18.13871 36179 ft 416 kts 288°
2026-04-15 15:08 47.27955 18.05784 36175 ft 417 kts 288°
2026-04-15 15:09 47.29799 17.97685 36173 ft 417 kts 288°
2026-04-15 15:09 47.31628 17.89577 36174 ft 418 kts 288°
2026-04-15 15:10 47.33459 17.81442 36178 ft 418 kts 288°
2026-04-15 15:10 47.35280 17.73298 36186 ft 418 kts 288°
2026-04-15 15:11 47.37103 17.65138 36187 ft 419 kts 289°
2026-04-15 15:11 47.38931 17.56963 36188 ft 420 kts 289°
2026-04-15 15:12 47.40756 17.48767 36194 ft 421 kts 289°
2026-04-15 15:12 47.42567 17.40546 36196 ft 421 kts 289°
2026-04-15 15:13 47.44373 17.32316 36193 ft 421 kts 289°
2026-04-15 15:13 47.46180 17.24074 36189 ft 422 kts 289°
2026-04-15 15:14 47.47987 17.15821 36188 ft 422 kts 289°
2026-04-15 15:14 47.49776 17.07604 36189 ft 423 kts 289°
2026-04-15 15:15 47.51569 16.99314 36189 ft 423 kts 289°
2026-04-15 15:15 47.53362 16.91014 36196 ft 424 kts 289°
2026-04-15 15:16 47.55155 16.82702 36202 ft 424 kts 289°
2026-04-15 15:16 47.56948 16.74379 36206 ft 424 kts 290°
2026-04-15 15:17 47.59036 16.66217 36205 ft 424 kts 294°
2026-04-15 15:17 47.61343 16.58183 36203 ft 424 kts 295°
2026-04-15 15:18 47.63617 16.50117 36207 ft 424 kts 294°
2026-04-15 15:18 47.65812 16.42002 36206 ft 424 kts 294°
2026-04-15 15:19 47.67968 16.33913 36202 ft 424 kts 294°
2026-04-15 15:19 47.70147 16.25770 36203 ft 425 kts 294°
2026-04-15 15:20 47.72332 16.17611 36200 ft 425 kts 294°
2026-04-15 15:20 47.74515 16.09441 36216 ft 426 kts 294°
2026-04-15 15:21 47.76693 16.01251 36220 ft 426 kts 294°
2026-04-15 15:21 47.78859 15.93048 36216 ft 427 kts 294°
2026-04-15 15:22 47.81026 15.84838 36219 ft 427 kts 294°
2026-04-15 15:22 47.83197 15.76607 36212 ft 427 kts 294°
2026-04-15 15:23 47.85355 15.68363 36204 ft 428 kts 294°
2026-04-15 15:23 47.87508 15.60098 36199 ft 428 kts 294°
2026-04-15 15:24 47.89658 15.51815 36196 ft 429 kts 295°
2026-04-15 15:24 47.91806 15.43525 36200 ft 429 kts 295°
2026-04-15 15:25 47.93951 15.35223 36199 ft 429 kts 295°
2026-04-15 15:25 47.96091 15.26902 36198 ft 429 kts 295°
2026-04-15 15:26 47.98225 15.18580 36197 ft 430 kts 295°
2026-04-15 15:26 48.00356 15.10238 36197 ft 429 kts 295°
2026-04-15 15:27 48.02479 15.01906 36201 ft 429 kts 295°
2026-04-15 15:27 48.04594 14.93565 36200 ft 429 kts 295°
2026-04-15 15:28 48.06688 14.85271 36201 ft 429 kts 295°
2026-04-15 15:28 48.08802 14.76871 36201 ft 429 kts 295°
2026-04-15 15:29 48.10897 14.68518 36201 ft 428 kts 295°
2026-04-15 15:29 48.12968 14.60226 36191 ft 428 kts 295°
2026-04-15 15:30 48.15056 14.51821 36188 ft 428 kts 295°
2026-04-15 15:30 48.17114 14.43539 36185 ft 427 kts 295°
2026-04-15 15:31 48.19177 14.35197 36178 ft 427 kts 295°
2026-04-15 15:31 48.21226 14.26853 36171 ft 426 kts 295°
2026-04-15 15:32 48.23267 14.18510 36170 ft 426 kts 295°
2026-04-15 15:32 48.25303 14.10174 36169 ft 425 kts 295°
2026-04-15 15:33 48.27325 14.01849 36164 ft 425 kts 295°
2026-04-15 15:33 48.29349 13.93508 36168 ft 424 kts 295°
2026-04-15 15:34 48.31366 13.85188 36167 ft 424 kts 295°
2026-04-15 15:34 48.33373 13.76857 36165 ft 424 kts 295°
2026-04-15 15:35 48.35374 13.68516 36171 ft 424 kts 295°
2026-04-15 15:35 48.37359 13.60173 36173 ft 424 kts 295°
2026-04-15 15:36 48.39341 13.51825 36174 ft 424 kts 295°
2026-04-15 15:36 48.41321 13.43476 36178 ft 423 kts 295°
2026-04-15 15:37 48.43290 13.35132 36174 ft 423 kts 295°
2026-04-15 15:37 48.45344 13.26851 36176 ft 421 kts 297°
2026-04-15 15:38 48.47545 13.18681 36176 ft 420 kts 297°
2026-04-15 15:38 48.49751 13.10515 36182 ft 421 kts 297°
2026-04-15 15:39 48.51914 13.02317 36188 ft 421 kts 296°
2026-04-15 15:39 48.54053 12.94098 36197 ft 420 kts 296°
2026-04-15 15:40 48.56167 12.85935 36196 ft 420 kts 296°
2026-04-15 15:40 48.58295 12.77731 36199 ft 420 kts 296°
2026-04-15 15:41 48.60419 12.69519 36195 ft 419 kts 296°
2026-04-15 15:41 48.62547 12.61261 36199 ft 419 kts 296°
2026-04-15 15:42 48.64661 12.53039 36201 ft 419 kts 296°
2026-04-15 15:42 48.66751 12.44886 36202 ft 419 kts 296°
2026-04-15 15:43 48.68838 12.36669 36208 ft 418 kts 296°
2026-04-15 15:43 48.70920 12.28456 36217 ft 417 kts 296°
2026-04-15 15:44 48.72996 12.20249 36214 ft 417 kts 296°
2026-04-15 15:44 48.74959 12.11977 36209 ft 421 kts 289°
2026-04-15 15:45 48.75978 12.03184 36190 ft 424 kts 284°
2026-04-15 15:45 48.76927 11.94361 36187 ft 424 kts 284°
2026-04-15 15:46 48.77872 11.85539 36192 ft 424 kts 284°
2026-04-15 15:46 48.78811 11.76714 36193 ft 424 kts 284°
2026-04-15 15:47 48.79737 11.67896 36182 ft 424 kts 284°
2026-04-15 15:47 48.80672 11.59062 36186 ft 424 kts 284°
2026-04-15 15:48 48.81586 11.50224 36201 ft 424 kts 284°
2026-04-15 15:48 48.82482 11.41391 36204 ft 423 kts 283°
2026-04-15 15:49 48.83382 11.32569 36204 ft 423 kts 283°
2026-04-15 15:49 48.84862 11.24054 36198 ft 413 kts 300°
2026-04-15 15:50 48.88066 11.16979 36183 ft 405 kts 318°
2026-04-15 15:50 48.90122 11.14035 35650 ft 406 kts 320°
2026-04-15 15:50 48.92195 11.11145 35157 ft 401 kts 320°
2026-04-15 15:51 48.94214 11.08332 34676 ft 397 kts 320°
2026-04-15 15:51 48.96265 11.05474 34178 ft 393 kts 320°
2026-04-15 15:51 48.98273 11.02671 33638 ft 389 kts 320°
2026-04-15 15:51 49.00225 10.99943 33160 ft 384 kts 320°
2026-04-15 15:52 49.02185 10.97200 32673 ft 380 kts 320°
2026-04-15 15:52 49.04121 10.94481 32191 ft 377 kts 319°
2026-04-15 15:52 49.06032 10.91793 31725 ft 373 kts 319°
2026-04-15 15:52 49.07931 10.89119 31254 ft 369 kts 319°
2026-04-15 15:53 49.09811 10.86469 30803 ft 366 kts 319°
2026-04-15 15:53 49.11672 10.83840 30357 ft 363 kts 319°
2026-04-15 15:53 49.13518 10.81225 29870 ft 360 kts 318°
2026-04-15 15:53 49.15341 10.78639 29448 ft 355 kts 318°
2026-04-15 15:54 49.17138 10.76088 29021 ft 350 kts 318°
2026-04-15 15:54 49.18912 10.73573 28631 ft 345 kts 318°
2026-04-15 15:54 49.20647 10.71071 28235 ft 341 kts 316°
2026-04-15 15:54 49.22312 10.68519 27831 ft 336 kts 315°
2026-04-15 15:55 49.23925 10.65959 27437 ft 332 kts 314°
2026-04-15 15:55 49.24975 10.64273 27175 ft 329 kts 314°
2026-04-15 15:55 49.26558 10.61728 26954 ft 336 kts 314°
2026-04-15 15:55 49.28216 10.59071 26873 ft 354 kts 314°
2026-04-15 15:56 49.29967 10.56282 26793 ft 373 kts 314°
2026-04-15 15:56 49.31813 10.53354 26380 ft 392 kts 314°
2026-04-15 15:56 49.33741 10.50298 25441 ft 402 kts 314°
2026-04-15 15:56 49.35643 10.47235 25076 ft 392 kts 311°
2026-04-15 15:57 49.37294 10.43952 24637 ft 386 kts 304°
2026-04-15 15:57 49.38825 10.40590 24118 ft 383 kts 304°
2026-04-15 15:57 49.40350 10.37249 23532 ft 382 kts 304°
2026-04-15 15:57 49.41889 10.33880 22664 ft 391 kts 304°
2026-04-15 15:58 49.43485 10.30382 22284 ft 403 kts 304°
2026-04-15 15:58 49.45091 10.26862 21879 ft 401 kts 304°
2026-04-15 15:58 49.46686 10.23357 21473 ft 399 kts 304°
2026-04-15 15:58 49.48270 10.19869 21072 ft 397 kts 304°
2026-04-15 15:59 49.49848 10.16386 20666 ft 395 kts 304°
2026-04-15 15:59 49.51413 10.12926 20262 ft 393 kts 304°
2026-04-15 15:59 49.52971 10.09473 19872 ft 391 kts 303°
2026-04-15 15:59 49.54522 10.06040 19470 ft 389 kts 303°
2026-04-15 16:00 49.56061 10.02627 19078 ft 387 kts 303°
2026-04-15 16:00 49.57595 9.99222 18687 ft 385 kts 303°
2026-04-15 16:00 49.59120 9.95838 18264 ft 383 kts 303°
2026-04-15 16:00 49.60634 9.92472 17856 ft 381 kts 303°
2026-04-15 16:01 49.62139 9.89126 17479 ft 379 kts 303°
2026-04-15 16:01 49.63632 9.85796 17089 ft 376 kts 303°
2026-04-15 16:01 49.65127 9.82449 16706 ft 389 kts 303°
2026-04-15 16:01 49.66704 9.78909 16339 ft 402 kts 303°
2026-04-15 16:02 49.68259 9.75419 16207 ft 386 kts 303°
2026-04-15 16:02 49.69734 9.72114 16082 ft 371 kts 303°
2026-04-15 16:02 49.71184 9.68861 15953 ft 356 kts 303°
2026-04-15 16:02 49.72542 9.65808 15827 ft 341 kts 303°
2026-04-15 16:03 49.73838 9.62895 15634 ft 319 kts 303°
2026-04-15 16:03 49.75089 9.60080 15110 ft 310 kts 303°
2026-04-15 16:03 49.76283 9.57382 14489 ft 307 kts 303°
2026-04-15 16:03 49.77483 9.54668 13834 ft 304 kts 303°
2026-04-15 16:04 49.78673 9.51985 13195 ft 300 kts 303°
2026-04-15 16:04 49.79841 9.49350 12863 ft 296 kts 303°
2026-04-15 16:04 49.81004 9.46717 12558 ft 295 kts 303°
2026-04-15 16:04 49.82202 9.44005 12251 ft 320 kts 303°
2026-04-15 16:05 49.83516 9.41021 11940 ft 350 kts 303°
2026-04-15 16:05 49.85031 9.37851 11630 ft 381 kts 312°
2026-04-15 16:05 49.87148 9.35389 11322 ft 384 kts 332°
2026-04-15 16:05 49.89701 9.34202 11169 ft 386 kts 351°
2026-04-15 16:06 49.92382 9.33807 11195 ft 387 kts 354°
2026-04-15 16:06 49.95066 9.33472 11197 ft 387 kts 354°
2026-04-15 16:06 49.97756 9.33140 11194 ft 387 kts 354°
2026-04-15 16:06 50.00439 9.32811 11196 ft 387 kts 354°
2026-04-15 16:07 50.03122 9.32485 11189 ft 381 kts 354°
2026-04-15 16:07 50.05705 9.32173 10975 ft 366 kts 354°
2026-04-15 16:07 50.10513 9.31253 10022 ft 328 kts 337°
2026-04-15 16:08 50.12383 9.29468 9504 ft 308 kts 313°
2026-04-15 16:08 50.13535 9.26801 8993 ft 291 kts 288°
2026-04-15 16:08 50.13928 9.23794 8474 ft 278 kts 275°
2026-04-15 16:08 50.14115 9.20841 7966 ft 269 kts 274°
2026-04-15 16:09 50.14277 9.17987 7469 ft 261 kts 274°
2026-04-15 16:09 50.14435 9.15213 6980 ft 254 kts 274°
2026-04-15 16:09 50.14591 9.12506 6476 ft 247 kts 274°
2026-04-15 16:09 50.14745 9.09867 5961 ft 242 kts 274°
2026-04-15 16:10 50.14898 9.07273 5451 ft 240 kts 274°
2026-04-15 16:10 50.14851 9.04676 4945 ft 241 kts 254°
2026-04-15 16:10 50.14314 9.02212 4417 ft 246 kts 248°
2026-04-15 16:10 50.13690 8.99684 4050 ft 243 kts 249°
2026-04-15 16:11 50.13121 8.97284 4019 ft 229 kts 249°
2026-04-15 16:11 50.12570 8.94931 4022 ft 232 kts 249°
2026-04-15 16:11 50.12017 8.92569 4022 ft 232 kts 249°
2026-04-15 16:11 50.11474 8.90253 4022 ft 226 kts 249°
2026-04-15 16:12 50.10956 8.88045 4020 ft 212 kts 249°
2026-04-15 16:12 50.10442 8.85862 3937 ft 221 kts 249°
2026-04-15 16:12 50.09914 8.83617 3708 ft 220 kts 249°
2026-04-15 16:12 50.09388 8.81385 3433 ft 219 kts 249°
2026-04-15 16:13 50.08862 8.79156 3134 ft 219 kts 249°
2026-04-15 16:13 50.08339 8.76939 2842 ft 218 kts 249°
2026-04-15 16:13 50.07816 8.74723 2540 ft 218 kts 249°
2026-04-15 16:13 50.07301 8.72546 2250 ft 209 kts 249°
2026-04-15 16:14 50.06814 8.70487 1987 ft 196 kts 249°
2026-04-15 16:14 50.06358 8.68563 1731 ft 183 kts 249°
2026-04-15 16:14 50.05938 8.66792 1503 ft 164 kts 249°
2026-04-15 16:14 50.05566 8.65226 1279 ft 146 kts 249°
2026-04-15 16:15 50.05220 8.63784 1093 ft 142 kts 249°
2026-04-15 16:15 50.04875 8.62349 884 ft 141 kts 250°
2026-04-15 16:15 50.04538 8.60906 720 ft 142 kts 250°
2026-04-15 16:15 50.04202 8.59473 539 ft 142 kts 250°
2026-04-15 16:16 50.03859 8.58039 378 ft 140 kts 250°
2026-04-15 16:16 50.03552 8.56761 350 ft 99 kts 251°
2026-04-15 16:16 50.03392 8.56085 355 ft 42 kts 251°
2026-04-15 16:16 50.03301 8.55676 349 ft 39 kts 260°
2026-04-15 16:17 50.03328 8.55375 345 ft 23 kts 279°
2026-04-15 16:17 50.03356 8.55124 342 ft 24 kts 280°
2026-04-15 16:17 50.03349 8.54876 337 ft 24 kts 247°
2026-04-15 16:17 50.03297 8.54659 335 ft 22 kts 250°
2026-04-15 16:18 50.03296 8.54488 339 ft 14 kts 329°
2026-04-15 16:18 50.03352 8.54457 335 ft 6 kts 340°
2026-04-15 16:18 50.03381 8.54441 337 ft 4 kts 340°
2026-04-15 16:18 50.03437 8.54409 350 ft 14 kts 340°
2026-04-15 16:19 50.03550 8.54344 342 ft 20 kts 339°
2026-04-15 16:19 50.03653 8.54314 342 ft 3 kts 36°
2026-04-15 16:19 50.03657 8.54324 348 ft 0 kts 57°
2026-04-15 16:20 50.03666 8.54349 342 ft 7 kts 64°
2026-04-15 16:20 50.03693 8.54468 347 ft 16 kts 69°
2026-04-15 16:21 50.03743 8.54665 350 ft 22 kts 70°
2026-04-15 16:21 50.03797 8.54894 354 ft 23 kts 68°
2026-04-15 16:21 50.03857 8.55139 356 ft 26 kts 70°
2026-04-15 16:21 50.03919 8.55404 350 ft 24 kts 69°
2026-04-15 16:22 50.03979 8.55653 351 ft 26 kts 70°
2026-04-15 16:22 50.04039 8.55913 355 ft 25 kts 70°
2026-04-15 16:22 50.04103 8.56174 358 ft 26 kts 70°
2026-04-15 16:22 50.04166 8.56437 354 ft 26 kts 71°
2026-04-15 16:23 50.04226 8.56694 364 ft 25 kts 68°
2026-04-15 16:23 50.04322 8.56821 360 ft 18 kts
2026-04-15 16:23 50.04457 8.56856 364 ft 21 kts 11°
2026-04-15 16:23 50.04608 8.56910 356 ft 24 kts 13°
2026-04-15 16:24 50.04737 8.56990 356 ft 17 kts 27°
2026-04-15 16:24 50.04831 8.57061 363 ft 11 kts 24°
2026-04-15 16:24 50.04886 8.57075 359 ft 7 kts 347°
2026-04-15 16:24 50.04916 8.57064 358 ft 2 kts
2026-04-15 16:25 50.04919 8.57069 360 ft 0 kts 33°
2026-04-15 16:25 50.04918 8.57079 356 ft 1 kts 94°
2026-04-15 16:25 50.04918 8.57087 356 ft 1 kts 97°
2026-04-15 16:25 50.04917 8.57088 356 ft 0 kts 97°